Location: Gro�bocka
(50.8204°N, 11.9702°E)
Time: 01:23:06
(UTC+00:00)

Cosmos 2227 - Pass Details

Date: 29 October 2020
Orbit: 836 x 860 km, 71.0° (Epoch: 23 November)

Event Time Altitude Azimuth Distance (km) Brightness Sun altitude
Rises 17:47:12 0° 331° (NNW) 3,399 7.8 -18.7°
Reaches altitude 10° 17:49:45 10° 338° (NNW) 2,461 6.9 -19.1°
Maximum altitude 17:55:12 47° 52° (NE) 1,100 4.4 -20.0°
Enters shadow 17:56:33 39° 91° (E) 1,231 4.5 -20.2°
